Regional Weather Roundup
Issued by NWS Charleston, SC

Current Version | Previous Version | Graphics & Text | Print | Product List | Glossary On
Versions: 1 2 3 4 5 6 7 8 9 10 11 12 13 14 15 16 17 18 19 20 21 22 23 24 25 26 27 28 29 30 31 32 33 34 35 36 37 38 39 40 41 42 43 44 45 46 47 48 49 50
000
ASUS42 KCHS 030312
RWRCHS

REGIONAL WEATHER ROUNDUP
NATIONAL WEATHER SERVICE CHARLESTON SC
1000 PM EST FRI DEC 02 2016

NOTE: "FAIR" INDICATES FEW OR NO CLOUDS BELOW 12,000 FEET WITH NO
SIGNIFICANT WEATHER AND/OR OBSTRUCTIONS TO VISIBILITY.

NOT ALL STATIONS ARE QUALITY CONTROLLED. USE DATA WITH CAUTION...
ESPECIALLY DEWPOINT OBSERVATIONS.

SCZ027-030-031-034>040-042>050-030400-
...SOUTHEAST SOUTH CAROLINA...

CITY           SKY/WX    TMP DP  RH WIND       PRES   REMARKS
N CHARLESTON   CLEAR     44  38  79 CALM      30.22R
WATERFRONT PRK   N/A     51  45  79 VRB2      30.21R
MOUNT PLEASANT NOT AVBL
JOHNS ISLAND   FAIR      43  39  87 CALM      30.22S
PINOPOLIS        N/A     55  43  62 W7        30.14R
MONCKS CORNER  FAIR      39  37  93 CALM      30.22R
SUMMERVILLE    FAIR      39  39 100 CALM      30.23S
BEAUFORT MCAS  CLEAR     42  37  82 SW5       30.23R
BEAUFORT ARPT  FAIR      45  41  87 CALM      30.23R
HILTON HEAD IS CLEAR     43  39  87 CALM      30.25R
WALTERBORO     CLEAR     41 N/A N/A CALM      30.23F
ALLENDALE      FAIR      41  37  87 CALM      30.22S

...SOUTHERN MIDLANDS AND PEE DEE...

CITY           SKY/WX    TMP DP  RH WIND       PRES   REMARKS
GEORGETOWN     NOT AVBL
KINGSTREE      FAIR      36  34  93 CALM      30.22R
ORANGEBURG     CLEAR     41  37  86 CALM      30.23R
BARNWELL       NOT AVBL
AIKEN          FAIR      39  36  87 CALM      30.24F
MANNING        NOT AVBL
COLUMBIA       PTCLDY    43  35  73 SW3       30.20S
SUMTER         CLEAR     46  35  66 W6        30.19R
FLORENCE       CLEAR     42  37  82 W3        30.21R
MYRTLE BEACH   CLEAR     43  36  75 W6        30.22R
N MYRTLE BEACH CLEAR     43  41  93 CALM      30.20R

$$

GAZ063-065-086>088-099>101-113>116-118-119-134>141-150-030400-
...SOUTHEAST GEORGIA...

CITY           SKY/WX    TMP DP  RH WIND       PRES   REMARKS
SAVANNAH ARPT  CLOUDY    44  38  79 CALM      30.24R
HUNTER AAF     CLOUDY    43  41  94 CALM      30.20S
FORT STEWART   CLOUDY    41  38  87 CALM      30.22R
STATESBORO     CLOUDY    40  40 100 CALM      30.23F
SYLVANIA       PTCLDY   N/A N/A N/A CALM      30.23F
CLAXTON        FAIR     N/A N/A N/A CALM      30.24F

...CSRA...CENTRAL AND FAR SOUTHEAST GEORGIA...

CITY           SKY/WX    TMP DP  RH WIND       PRES   REMARKS
THOMSON        CLEAR     44  39  81 CALM      30.26F
AUGUSTA-BUSH   CLEAR     39  35  86 CALM      30.22S
AUGUSTA-DANIEL CLEAR     54  28  36 NW9       30.21F
SWAINSBORO     FAIR      41  37  87 CALM      30.23F
VIDALIA        MOCLDY    46  43  87 CALM      30.24S
EASTMAN        FAIR      42  32  66 CALM      30.27S
HAZLEHURST     FAIR      48  41  77 CALM      30.24S
ALMA           CLOUDY    46  44  93 CALM      30.25R
WAYCROSS       PTCLDY    51  47  86 CALM      30.26R
JESUP          FAIR      43  43 100 CALM      30.25R
BAXLEY         FAIR      46  45  93 CALM      30.25R
BRUNSWICK      MOCLDY    46  45  93 CALM      30.25S
SAINT SIMONS   PTCLDY    53  41  63 N3        30.24R

$$

SCZ027-028-034-036>038-045-046-048>050-GAZ119-141-030400-
...LAKE AND SUPPLEMENTAL COASTAL OBSERVATIONS...

STATION/POSITION TIME  TEMP    WIND        PRES    WAVE   SWELL
                       AIR SEA DIR/SP/G            HT/PER HT/PER/DIR
                 (UTC) (F)     (DEG/KT/KT) (MB)    (FT/S) (FT/S/D)
WINYAH BAY       0145   47     310/  3     1022.0
LAKE MURRAY      0220   51     290/  3/  4 1022.4
ACE BASIN NERRS  0145   44        CALM     1023.0
FORT PULASKI     0242   54 63  310/  5/  6 1024.2R
SAPELO ISLAND    0200   47      30/  3     1024.0

$$

ANZ835-935-AMZ111-154-330-350-352-354-370-450-454-472-030400-
...C-MAN AND BUOY OBSERVATIONS...

STATION/POSITION TIME  TEMP    WIND        PRES    WAVE   SWELL
                       AIR SEA DIR/SP/G            HT/PER HT/PER/DIR
                 (UTC) (F)     (DEG/KT/KT) (MB)    (FT/S) (FT/S/D)
BUOY 41004       0250   61 75  320/ 12/ 16 1022.4R   3/ 9   2/130/ 9
BUOY 41008       0250   61 65  360/ 12/ 14 1023.2R   3/ 9   2/120/ 9
FOLLY BEACH CMAN 0200   53     280/  3/  3 1023.4R
CAPERS NEARSHORE NOT AVBL
FRIPP NEARSHORE  0208   58 63  330/  6/  8 1022.9R


STATION/POSITION TIME  TEMP    WIND        PRES    WAVE   SWELL
                       AIR SEA DIR/SP/G            HT/PER HT/PER/DIR
                 (UTC) (F)     (DEG/KT/KT) (MB)    (FT/S) (FT/S/D)
5E ST. MARYS GA  0230      66                N/A     3/ 3
FRYING PAN BUOY  0250   60 74  310/ 17/ 19 1021.5R   3/ 4   2/120/ 9
BUOY 41025       0250   58 75  310/ 19/ 23 1019.5R   4/ 8   2/100/ 8
CAPE LOOKOUT NC  0200   55     300/ 12/ 16 1020.2R
BUOY 41002       0250   68 74  340/ 14/ 17 1018.7R   4/ 6   2/140/ 9
BUOY 41010       NOT AVBL
ST AUGUSTINE FL  0300   58 67  320/  7/  8 1023.9R


$$



USA.gov is the U.S. government's official web portal to all federal, state and local government web resources and services.